"Pseudo-MPEC" for P21oWQ0

Created 2021 Nov 26 4:07:13 UT using Find_Orb

Click here for an explanation of pseudo-MPECs

 
 Astrometry: 
     P21oWQ0  C2021 11 08?d:hoF5DCee+vgLP[h1M#DT$Vb`K'$eIse^q.I3M/hIv:SW\d^`cF51
     P21oWQ0  C2021 11 088'I'gtbk`2KJjZNWa]E1Y9djvON68gTs65;0R`J%PBodpLK-L\@eF51
     P21oWQ0  C2021 11 12!0;P_+B:op)0Z[q+AstrometrySv[PEyFredacted;KJTwat=b_2F52
     P21oWQ0  C2021 11 128D4$X)ta:.w19*aNZ`M[eRi=9=Z!lmd[$vdR^Xa5CTs^]Tx05dX'F52
     P21oWQ0  C2021 11 12Uua0x-#xL^WH#/`5JOY%IqbWpLFZiclick$axy/wcfviK-8(R=g(F52
     P21oWQ0  C2021 11 12PFQH..ZTR#Xm1Ie/2Q_VVln^bFO(RuYT]ALrO$uaKQst(aHg=$31F52
     P21oWQ0 KC2021 11 13.40602004 36 49.10 -14 20 06.7    ~BDAM 22.07GVNEOCPV06
     P21oWQ0 KC2021 11 13.40920204 36 49.01 -14 20 06.6    ~BDAM 22.82GVNEOCPV06
     P21oWQ0 KC2021 11 13.41238304 36 48.88 -14 20 06.8    ~BDAM 22.43GVNEOCPV06
     P21oWQ0  C2021 11 19cu1?%:KTMlIRdx19`\kY1aar/(5hoQD1J#%uX-!JV.hT?'nUrMf4F51
     P21oWQ0  C2021 11 19h^wJMe?Mp9@Ay%q#[%herekjxs8.EfN3.g1Y:PRh!p'forA8y7k%F51
     P21oWQ0  C2021 11 19/o:h:^ggwO3c#Kje*+]sqST8ES*72m`M[ehbQU%UUQyu5*7rW.1KF51
     P21oWQ0  C2021 11 19?^QQXgWDCy`u.@*=K)8`hO3y791l*P55\kexplanationn#HlF!,F51

Station data:
(F51) Pan-STARRS 1, Haleakala  (N20.707235 W156.255910)  US/Hawaii.
   Observers N. Primak, A. Schultz, S. Watters, J. Thiel, T. Goggia. Measurer
   PS1 Science Consortium. 1.8-m Ritchey-Chrétien + CCD.
(F52) Pan-STARRS 2, Haleakala  (N20.707384 W156.255910)  US/Hawaii. 1.8-m
   Ritchey-Chrétien + CCD.
(V06) Catalina Sky Survey-Kuiper  (N32.416847 W110.732550)  US/Arizona.
   Observers T. A. Pruyne, B. M. Africano, E. J. Christensen, G. A. Farneth,
   D. C. Fuls, A. R. Gibbs, A. D. Grauer, H. Gröller, J. A. Johnson, R. A.
   Kowalski, S. M. Larson, G. J. Leonard, D. Rankin, R. L. Seaman, F. C.
   Shelly. 1.55-m reflector + CCD.

Orbital elements:  P21oWQ0
   Perihelion 2022 Nov 10.946963 +/- 75.5954 TT = 22:43:37 (JD 2459894.446963)
Epoch 2021 Nov 19.0 TT = JDT 2459537.5   Ju: 0.3309           AutoNEOCP
M 331.01706188 +/- 6.1102833        (J2000 ecliptic)
n   0.08119676 +/- 0.000168866      Peri.  340.38951 +/- 7.4948253
a   5.28173859 +/- 0.0073211        Node   109.25014 +/- 0.1799179
e   0.0801601 +/- 0.00607011        Incl.   37.29395 +/- 0.0934543
P  12.14                   H 15.2   G  0.15   U  7.3  
q 4.85835377 +/- 0.0267567    Q 5.70512342 +/- 0.0389568
From 13 observations 2021 Nov. 8-19; mean residual 0".12
Residuals in arcseconds: 
211108 F51  .01+  .15-    211112 F52  .07+  .08-    211119 F51  .01+  .12-    
211108 F51  .03+  .14+    211113 V06  .02+  .11-    211119 F51  .04-  .18+    
211112 F52  .09-  .10+    211113 V06  .30+  .08+    211119 F51  .00   .12+    
211112 F52  .23-  .10+    211113 V06  .00   .03-    
211112 F52  .15-  .04-    211119 F51  .01+  .17-    

Ephemerides (geocentric):
Date (UTC) HH   RA              Dec         delta   r     elong  mag " sig PA
---- -- -- --  -------------   -----------  ------ ------ -----  --- ---- ---
2021 11 26 04  04 29 14.311   -14 14 48.71  4.0815 4.9179 144.4 22.2 1.05   6
2021 11 26 05  04 29 12.772   -14 14 45.33  4.0814 4.9179 144.4 22.2 1.06   6
2021 11 26 06  04 29 11.233   -14 14 41.93  4.0814 4.9179 144.4 22.2 1.07   6
2021 11 26 07  04 29 09.693   -14 14 38.51  4.0814 4.9178 144.4 22.2 1.08   6
2021 11 26 08  04 29 08.153   -14 14 35.08  4.0814 4.9178 144.4 22.2 1.09   6
2021 11 26 09  04 29 06.614   -14 14 31.63  4.0814 4.9178 144.4 22.2 1.10   6
2021 11 26 10  04 29 05.073   -14 14 28.17  4.0814 4.9178 144.4 22.2 1.10   6
2021 11 26 11  04 29 03.533   -14 14 24.69  4.0814 4.9178 144.4 22.2 1.11   7
2021 11 26 12  04 29 01.993   -14 14 21.19  4.0814 4.9178 144.4 22.2 1.12   7
2021 11 26 13  04 29 00.452   -14 14 17.68  4.0814 4.9178 144.4 22.2 1.13   7
2021 11 26 14  04 28 58.912   -14 14 14.15  4.0813 4.9177 144.4 22.2 1.14   7
2021 11 26 15  04 28 57.371   -14 14 10.61  4.0813 4.9177 144.4 22.2 1.15   7
2021 11 26 16  04 28 55.830   -14 14 07.05  4.0813 4.9177 144.4 22.2 1.16   7
2021 11 26 17  04 28 54.289   -14 14 03.48  4.0813 4.9177 144.4 22.2 1.16   7
2021 11 26 18  04 28 52.748   -14 13 59.89  4.0813 4.9177 144.4 22.2 1.17   7
2021 11 26 19  04 28 51.206   -14 13 56.28  4.0813 4.9177 144.4 22.2 1.18   7
2021 11 26 20  04 28 49.665   -14 13 52.66  4.0813 4.9177 144.4 22.2 1.19   7
2021 11 26 21  04 28 48.123   -14 13 49.02  4.0813 4.9177 144.4 22.2 1.20   7
2021 11 26 22  04 28 46.581   -14 13 45.37  4.0813 4.9176 144.4 22.2 1.21   7
2021 11 26 23  04 28 45.039   -14 13 41.70  4.0813 4.9176 144.4 22.2 1.22   7
2021 11 27 00  04 28 43.497   -14 13 38.01  4.0813 4.9176 144.4 22.2 1.23   7
2021 11 27 01  04 28 41.955   -14 13 34.31  4.0813 4.9176 144.4 22.2 1.24   7
2021 11 27 02  04 28 40.413   -14 13 30.59  4.0813 4.9176 144.4 22.2 1.24   7
2021 11 27 03  04 28 38.870   -14 13 26.86  4.0813 4.9176 144.4 22.2 1.25   7
2021 11 27 04  04 28 37.328   -14 13 23.11  4.0813 4.9176 144.4 22.2 1.26   7
2021 11 27 05  04 28 35.785   -14 13 19.35  4.0813 4.9175 144.4 22.2 1.27   7
2021 11 27 06  04 28 34.242   -14 13 15.56  4.0813 4.9175 144.4 22.2 1.28   7
2021 11 27 07  04 28 32.699   -14 13 11.77  4.0813 4.9175 144.4 22.2 1.29   7
2021 11 27 08  04 28 31.156   -14 13 07.96  4.0813 4.9175 144.4 22.2 1.30   7
2021 11 27 09  04 28 29.613   -14 13 04.13  4.0813 4.9175 144.4 22.2 1.31   7
2021 11 27 10  04 28 28.070   -14 13 00.28  4.0813 4.9175 144.4 22.2 1.32   7
2021 11 27 11  04 28 26.526   -14 12 56.42  4.0813 4.9175 144.4 22.2 1.33   8
2021 11 27 12  04 28 24.983   -14 12 52.55  4.0813 4.9174 144.4 22.2 1.34   8
2021 11 27 13  04 28 23.439   -14 12 48.66  4.0813 4.9174 144.4 22.2 1.35   8
2021 11 27 14  04 28 21.895   -14 12 44.75  4.0813 4.9174 144.4 22.2 1.36   8
2021 11 27 15  04 28 20.351   -14 12 40.83  4.0813 4.9174 144.4 22.2 1.37   8
2021 11 27 16  04 28 18.807   -14 12 36.89  4.0813 4.9174 144.4 22.2 1.37   8
2021 11 27 17  04 28 17.263   -14 12 32.93  4.0813 4.9174 144.4 22.2 1.38   8
2021 11 27 18  04 28 15.719   -14 12 28.96  4.0813 4.9174 144.4 22.2 1.39   8
2021 11 27 19  04 28 14.175   -14 12 24.97  4.0813 4.9173 144.4 22.2 1.40   8
2021 11 27 20  04 28 12.631   -14 12 20.97  4.0813 4.9173 144.4 22.2 1.41   8
2021 11 27 21  04 28 11.086   -14 12 16.95  4.0813 4.9173 144.4 22.2 1.42   8
2021 11 27 22  04 28 09.542   -14 12 12.92  4.0813 4.9173 144.4 22.2 1.43   8
2021 11 27 23  04 28 07.997   -14 12 08.87  4.0813 4.9173 144.4 22.2 1.44   8
2021 11 28 00  04 28 06.452   -14 12 04.80  4.0813 4.9173 144.4 22.2 1.45   8
2021 11 28 01  04 28 04.908   -14 12 00.72  4.0813 4.9173 144.4 22.2 1.46   8
2021 11 28 02  04 28 03.363   -14 11 56.62  4.0813 4.9173 144.4 22.2 1.47   8
2021 11 28 03  04 28 01.818   -14 11 52.50  4.0813 4.9172 144.4 22.2 1.48   8